Regional Weather Roundup
Issued by NWS

Home | Current Version | Previous Version | Text Only | Print | Product List | Glossary Off
Versions: 1 2 3 4 5 6 7 8 9 10 11 12 13 14 15 16 17 18 19 20 21 22 23 24 25 26 27 28 29 30 31 32 33 34 35 36 37 38 39 40 41 42 43 44 45 46 47 48 49 50

959
ASUS43 KLMK 261810
RWRKY
KENTUCKY REGIONAL WEATHER ROUNDUP
NATIONAL WEATHER SERVICE LOUISVILLE KY
200 PM EDT THU MAY 26 2016

NOTE "FAIR" INDICATES FEW OR NO CLOUDS BELOW 12,000 FEET
WITH NO SIGNIFICANT WEATHER AND/OR OBSTRUCTIONS TO VISIBILITY.

KYZ001>023-026-027-061>063-070>075-261900-
WESTERN AND SOUTH CENTRAL KENTUCKY

CITY           SKY/WX    TMP DP  RH WIND       PRES   REMARKS
PADUCAH        CLOUDY    74  64  71 N14       30.03S
HENDERSON      CLOUDY    68  63  83 E5        30.04F
OWENSBORO      TSTM      67  67 100 E9        30.05F
HOPKINSVILLE   MOSUNNY   82  73  75 SW9       30.03F
BOWLING GREEN  CLOUDY    82  72  71 S12       30.05F
GLASGOW        CLOUDY    80  68  67 SW7       30.07F
$$

KYZ024-025-028>034-038-045-046-053-261900-
NORTH CENTRAL KENTUCKY

CITY           SKY/WX    TMP DP  RH WIND       PRES   REMARKS
LOUISVILLE/SDF CLOUDY    81  67  62 SW14      30.04F
LOUISVILLE/LOU CLOUDY    80  68  66 S9        30.04F
FORT KNOX      PTSUNNY   81  70  69 W23G36    30.07R
$$

KYZ035>037-039>044-047>052-055>060-089>105-261900-
NORTHEAST KENTUCKY

CITY           SKY/WX    TMP DP  RH WIND       PRES   REMARKS
LEXINGTON      PTSUNNY   78  66  66 S14G22    30.09F
COVINGTON      PTSUNNY   79  67  66 SW10      30.06F
FRANKFORT      MOSUNNY   82  67  60 S14       30.06F
$$

KYZ054-064>069-076>088-106>120-261900-
SOUTHEAST KENTUCKY

CITY           SKY/WX    TMP DP  RH WIND       PRES   REMARKS
JACKSON        CLOUDY    73  64  73 VRB5      30.16F
LONDON         CLOUDY    71  65  81 SW8       30.15F
SOMERSET       PTSUNNY   72  70  94 S6        30.14F
MIDDLESBORO    RAIN      70  67  90 CALM      30.22F
MONTICELLO     CLOUDY    75  70  84 E9        30.14F
$$





USA.gov is the U.S. government's official web portal to all federal, state and local government web resources and services.